Weather History for KBTM - April, 2014

Change the Weather History Date:

Friday, April 11, 2014

  Actual Average Record
Temperature  
Mean Temperature 43 °F 38 °F  
Max Temperature 59 °F 50 °F 72 °F (2012)
Min Temperature 26 °F 26 °F 3 °F (1953)
Degree Days  
Heating Degree Days 22 27  
Month to date heating degree days 283 310  
Since 1 July heating degree days 7729 7921  
Cooling Degree Days 0 0  
Month to date cooling degree days 0 0  
Year to date cooling degree days 0 0  
Moisture  
Dew Point 21 °F    
Average Humidity 51    
Maximum Humidity 81    
Minimum Humidity 21    
Precipitation  
Precipitation 0.00 in 0.04 in 0.88 in (1916)
Month to date precipitation T 0.39  
Year to date precipitation 2.11 2.05  
Sea Level Pressure  
Sea Level Pressure 29.88 in    
Wind  
Wind Speed 7 mph (West)    
Max Wind Speed 22 mph    
Max Gust Speed 31 mph    
Visibility 10 miles    
Events      
T = Trace of Precipitation, MM = Missing Value Source: NWS Daily Summary

Daily Weather History Graph

Daily Weather History Graph

Search for Another Location

Airport or City:

Trip Planner

Search our weather history database for the weather conditions in past years. The results will help you decide how hot, cold, wet, or windy it might be!

Date:

Astronomy

Apr. 11, 2014 Rise Set
Actual Time 6:50 AM MDT 8:11 PM MDT
Civil Twilight 6:20 AM MDT 8:42 PM MDT
Nautical Twilight 5:42 AM MDT 9:20 PM MDT
Astronomical Twilight 5:03 AM MDT 10:00 PM MDT
Moon 4:46 PM MDT (4/11) 4:59 AM MDT (4/11)
Length of Visible Light 14h 22m
Length of Day
13h 20m
Waxing Gibbous, 87% of the Moon is Illuminated
Apr 11
Waxing Gibbous
Apr 15
Full
Apr 22
Last Quarter
Apr 29
New
May 6
First Quarter

Hourly Weather History & Observations

Time (MDT) Temp. Windchill Dew Point Humidity Pressure Visibility Wind Dir Wind Speed Gust Speed Precip Events Conditions
12:53 AM 35.1 °F - 19.0 °F 52% 30.02 in 10.0 mi Calm Calm - N/A   Clear
1:53 AM 33.1 °F 30.0 °F 21.0 °F 61% 30.01 in 10.0 mi East 3.5 mph - N/A   Clear
2:53 AM 33.1 °F - 21.0 °F 61% 29.97 in 10.0 mi Calm Calm - N/A   Clear
3:53 AM 32.0 °F - 21.9 °F 66% 29.98 in 10.0 mi Calm Calm - N/A   Clear
4:53 AM 28.9 °F 25.2 °F 21.9 °F 75% 29.97 in 10.0 mi SSE 3.5 mph - N/A   Clear
5:53 AM 28.0 °F 24.2 °F 21.0 °F 75% 29.96 in 10.0 mi SE 3.5 mph - N/A   Clear
6:53 AM 28.0 °F - 21.0 °F 75% 29.94 in 10.0 mi Calm Calm - N/A   Clear
7:53 AM 27.0 °F - 21.9 °F 81% 29.97 in 10.0 mi Calm Calm - N/A   Clear
8:53 AM 35.1 °F - 24.1 °F 64% 29.95 in 10.0 mi Calm Calm - N/A   Clear
9:53 AM 45.0 °F 41.2 °F 21.9 °F 40% 29.91 in 10.0 mi NNW 6.9 mph - N/A   Clear
10:53 AM 50.0 °F - 19.9 °F 31% 29.88 in 10.0 mi WNW 11.5 mph - N/A   Clear
11:53 AM 53.1 °F - 21.0 °F 29% 29.88 in 10.0 mi West 10.4 mph 27.6 mph N/A   Scattered Clouds
12:53 PM 54.0 °F - 21.9 °F 29% 29.86 in 10.0 mi West 13.8 mph 24.2 mph N/A   Partly Cloudy
1:53 PM 55.0 °F - 21.9 °F 28% 29.83 in 10.0 mi West 8.1 mph 27.6 mph N/A   Clear
2:53 PM 55.9 °F - 21.9 °F 27% 29.81 in 10.0 mi SW 15.0 mph 25.3 mph N/A   Clear
3:53 PM 59.0 °F - 21.0 °F 23% 29.78 in 10.0 mi WSW 12.7 mph 24.2 mph N/A   Clear
4:53 PM 57.9 °F - 19.0 °F 22% 29.78 in 10.0 mi West 11.5 mph 25.3 mph N/A   Clear
5:53 PM 57.9 °F - 17.1 °F 20% 29.78 in 10.0 mi West 13.8 mph 26.5 mph N/A   Clear
6:53 PM 55.9 °F - 18.0 °F 23% 29.78 in 10.0 mi WSW 17.3 mph 24.2 mph N/A   Clear
7:53 PM 52.0 °F - 21.0 °F 30% 29.81 in 10.0 mi WNW 6.9 mph - N/A   Clear
8:53 PM 48.9 °F - 21.9 °F 35% 29.81 in 10.0 mi NW 8.1 mph - N/A   Mostly Cloudy
9:53 PM 46.0 °F 41.9 °F 21.0 °F 37% 29.80 in 10.0 mi WNW 8.1 mph - N/A   Clear
10:53 PM 43.0 °F 38.8 °F 21.0 °F 42% 29.78 in 10.0 mi NW 6.9 mph - N/A   Partly Cloudy
11:53 PM 42.1 °F 37.7 °F 23.0 °F 47% 29.80 in 10.0 mi NNW 6.9 mph - N/A   Clear